Preview of NWS' New Version of Forecast
This preview is not operational and should not be used for support decisions.

Regional Weather Roundup (RWR)

Issued by Philadelphia/Mt Holly (PHI)

                            
000
ASUS41 KPHI 260712
RWRPHI

REGIONAL WEATHER ROUNDUP
NATIONAL WEATHER SERVICE MOUNT HOLLY NJ
300 AM EDT SUN MAY 26 2019

NOTE:  "FAIR" INDICATES FEW OR NO CLOUDS BELOW 12,000 FEET WITH NO
SIGNIFICANT WEATHER AND/OR OBSTRUCTIONS TO VISIBILITY.

 * = STATION DOES NOT REPORT PRECIPITATION (E.G. RAIN, SNOW, ETC.) 
        OR FOG.

NJZ015>026-260800-
SOUTHERN NEW JERSEY
  
CITY           SKY/WX    TMP DP  RH WIND       PRES   REMARKS
POMONA         MOCLDY    66  66 100 SW10      29.98F                  
WILDWOOD*      MOCLDY   N/A N/A N/A S10       30.01F                  
MILLVILLE      FAIR      65  64  97 VRB3      29.99F                  
WRIGHTSTOWN    CLOUDY    60  58  93 W5        29.95F                  
MOUNT HOLLY    FAIR      61  59  93 CALM      29.97F                  
TRENTON        FAIR      60  56  86 SW3       29.97F                  

$$
NJZ001>014-260800-
NORTHERN NEW JERSEY
  
CITY           SKY/WX    TMP DP  RH WIND       PRES   REMARKS
SUSSEX         CLOUDY    59  57  93 SW5       29.97S                  
ANDOVER*         N/A     59  55  87 SW5       29.97F                  
MORRISTOWN     CLOUDY    61  57  88 SW3       29.97F                  
NEWARK         CLOUDY    63  56  78 SW9       29.97F                  
TETERBORO      CLOUDY    63  55  75 SW7       29.96F                  
CALDWELL       CLOUDY    62  56  80 SW6       29.97F                  
SOMERVILLE     CLOUDY    60  58  92 CALM      29.96F                  
ALLAIRE*       CLOUDY    61  57  87 SW5       29.98F                  
TOMS RIVER*    CLOUDY    63  63 100 SW7       29.98F                  

$$
PAZ043-044-047-054-055-060>062-066>071-260800-
EASTERN PENNSYLVANIA
  
CITY           SKY/WX    TMP DP  RH WIND       PRES   REMARKS
PHILADELPHIA   MOCLDY    64  61  90 SW7       29.97F                  
NORTH PHILA    FAIR      64  59  83 SW5       29.98F                  
BLUE BELL*     CLOUDY    63  61  91 S6        29.98F                  
DOYLESTOWN     CLOUDY    63  57  81 SW5       29.98F                  
QUAKERTOWN*    CLOUDY    63  59  88 CALM      29.99F                  
PERKASIE*      CLOUDY    61  61 100 CALM      30.00F                  
POTTSTOWN      CLOUDY    61  60  97 CALM      30.00F                  
LANCASTER      FAIR      62  60  93 NE3       29.98F                  
COATESVILLE    CLOUDY    63  63 100 VRB3      30.00F FOG              
WEST CHESTER   CLOUDY    63  61  94 SW3       29.99F                  
READING        CLOUDY    64  62  93 CALM      29.97F                  
ALLENTOWN      CLOUDY    64  57  78 CALM      29.98F                  
QN CITY/ALNTWN CLOUDY    63  59  88 S5        29.99F                  
MOUNT POCONO   CLOUDY    57  57 100 W10       29.99S                  
HAZLETON       CLOUDY    61  59  94 CALM      30.03S FOG              
LEHIGHTON      CLOUDY    61  61 100 CALM      29.99F                  
WILKES BARRE   CLOUDY    64  61  90 W6        29.97S                  

$$
DEZALL-MDZ008-012-015-019-020-260800-
DELAWARE AND EASTERN MARYLAND
  
CITY           SKY/WX    TMP DP  RH WIND       PRES   REMARKS
WILMINGTON     FAIR      63  62  97 CALM      29.98F                  
DOVER          CLOUDY    66  66 100 S7        29.98F                  
CHESWOLD         N/A     66  64  94 CALM      30.00S                  
GEORGETOWN     MOCLDY    70  66  87 CALM      30.02S                  
EASTON         FAIR      70  69  96 SW3       30.04S                  
STEVENSVILLE   FAIR      70  70 100 S6        30.00F                  
PATUXENT       MOCLDY    71  71 100 SW5       30.00                   
OCEAN CITY     LGT RAIN  70  66  87 SW14G24   30.02F                  
WALLOPS ISLAND TSTM      71  69  93 SW8       30.04S                  
CAMBRIDGE      MOCLDY    72  70  94 VRB5      30.00F                  
SALISBURY      LGT RAIN  69  68  96 S15       30.02S FOG              

$$
PAZ001-021-NYZ056-072-MDZ011-DCZ001-260800-
OTHER NEARBY LOCATIONS
  
CITY           SKY/WX    TMP DP  RH WIND       PRES   REMARKS
HARRISBURG     FAIR      67  63  87 CALM      29.98S                  
STATE COLLEGE  FAIR      64  62  96 SW6       30.00S                  
WILLIAMSPORT   MOCLDY    65  63  93 CALM      29.95S                  
BINGHAMTON     CLOUDY    61  60  97 SW7       29.94S                  
NEW YORK CITY  MOCLDY    63  56  78 W6        29.99F                  
BALTIMORE      FAIR      66  63  90 CALM      30.00S                  
WASHINGTON DC  CLOUDY    71  67  87 CALM      30.02R                  

$$